Wind_Speed
22 22 22 22 24 24 24 23 24 23 23 23 24 25 26 25 25 24 24 24 23 24 23 23 23 23 24 24 25 25 26 26 25 26 26 26 25 25 25 25 25 25 25 26
24 23 24 25 25 25 25 25 25 25 25 24 24 25 25 25 25 25 25 25 25 25 25 24 24 24 25 25 26 26 26 27 27 27 27 26 26 26 26 26 26 26 26 26
25 24 25 26 26 25 25 25 26 26 25 25 25 25 24 24 24 25 25 25 25 25 25 25 24 24 25 26 26 27 27 27 27 27 27 26 26 27 26 26 26 27 26 26
25 25 26 25 25 26 27 25 24 25 25 25 25 25 25 25 26 26 26 26 26 25 25 25 25 25 25 26 27 27 28 27 27 28 27 27 26 27 26 26 26 26 26 26
26 26 26 25 24 24 25 26 25 26 26 26 26 26 26 26 27 27 27 27 26 26 26 26 26 27 27 27 28 29 28 28 28 28 28 27 27 27 27 27 27 27 27 26
26 27 28 26 25 25 26 26 25 26 27 27 27 27 27 27 27 27 27 27 27 27 27 27 27 28 28 28 29 29 29 29 29 28 27 27 27 27 27 27 27 28 28 28
27 28 28 27 26 26 26 26 26 26 26 26 27 27 27 27 26 26 27 28 28 28 28 27 27 28 28 28 28 28 28 28 28 28 28 28 27 27 27 28 28 28 29 29
27 28 28 27 27 27 27 26 27 27 26 27 27 28 28 28 28 28 28 28 28 28 28 28 28 28 28 28 27 27 27 27 28 27 27 28 27 28 28 28 29 29 29 29
28 29 29 29 28 28 28 27 27 27 27 28 29 29 29 28 28 28 28 28 28 28 28 28 29 28 28 28 27 27 27 27 27 27 27 28 28 28 28 29 29 28 29 29
30 30 30 30 30 30 29 29 29 29 29 29 30 30 30 29 28 28 28 28 28 28 28 29 29 29 28 28 27 27 27 27 27 27 28 28 28 28 29 29 29 28 29 29
32 31 31 31 31 31 31 30 30 29 29 29 29 29 29 29 29 29 29 29 29 28 28 29 28 28 28 28 28 28 28 28 27 28 28 28 28 28 29 29 29 29 29 29
32 32 32 32 32 32 31 31 30 30 29 29 29 29 29 30 29 29 29 29 29 29 29 29 29 29 28 28 28 28 28 28 28 29 29 29 29 29 29 29 29 29 29 28
31 31 32 32 32 32 31 31 31 31 31 31 30 30 30 29 29 28 28 29 29 29 29 29 29 29 29 29 29 29 29 29 29 29 29 29 28 28 28 28 28 28 28 28
31 31 31 31 31 31 31 31 32 32 32 31 31 30 30 29 28 28 29 29 29 30 30 30 30 29 29 29 30 30 30 29 29 29 29 29 28 28 27 27 27 27 26 27
30 30 30 30 30 31 31 32 32 32 32 31 31 30 30 29 29 29 29 30 30 30 30 30 30 29 29 29 30 30 30 30 29 28 28 28 28 27 27 27 27 26 26 26
28 29 29 29 30 30 30 31 31 31 31 31 31 31 30 30 30 30 30 30 30 30 30 30 30 30 30 30 30 29 29 28 27 27 27 27 27 27 27 27 28 27 26 26
27 28 29 29 29 29 30 30 30 31 31 31 31 31 30 30 31 30 30 30 30 31 31 31 30 30 29 29 29 29 28 27 27 27 26 27 27 27 27 27 28 27 27 27
27 28 28 29 29 29 29 29 30 30 30 31 31 32 32 32 31 31 31 31 31 31 31 31 30 30 30 29 29 29 28 28 27 27 28 28 27 27 27 28 28 28 28 27
27 27 27 28 28 28 29 29 29 30 30 30 31 31 31 32 32 31 32 31 31 31 31 31 30 30 29 29 29 29 28 28 28 28 29 28 28 28 27 27 26 26 26 26
27 28 28 29 29 29 29 29 29 29 29 30 30 31 32 32 32 32 32 32 31 31 31 30 29 29 29 28 28 27 28 28 29 28 28 27 27 27 27 26 27 26 26 26
27 28 28 28 29 29 29 29 29 29 29 30 31 31 31 32 32 32 32 32 31 30 30 29 29 29 28 27 27 27 27 27 27 27 27 27 27 26 25 25 25 25 25 25
27 28 28 28 29 29 29 29 29 29 30 30 30 30 30 31 31 31 31 30 30 29 29 29 29 28 28 27 27 27 27 27 26 26 26 26 26 26 26 26 25 25 25 25
26 27 27 28 28 28 28 29 29 29 30 29 29 29 29 29 29 29 29 29 29 29 29 29 29 28 27 28 28 28 27 27 26 25 25 25 25 25 26 26 26 26 26 27
26 26 27 28 28 28 28 28 29 29 29 29 29 29 29 29 29 29 29 29 28 29 29 30 29 29 29 28 28 28 28 27 26 26 26 26 26 26 26 27 27 27 27 27
27 27 27 28 28 28 28 28 28 28 28 28 28 29 29 29 29 28 29 29 29 29 28 29 29 30 30 30 29 28 28 28 27 26 26 26 27 27 27 27 26 26 26 27
28 28 28 27 28 28 28 28 28 28 28 28 28 28 28 28 28 27 28 28 28 28 28 28 28 29 29 29 29 28 28 27 27 27 27 26 27 27 27 27 27 28 28 27
27 27 27 28 28 28 28 28 28 27 27 26 26 27 27 27 27 27 27 27 27 27 27 27 27 27 27 28 29 29 29 28 28 28 27 27 27 28 28 28 28 28 28 27
Wind_Direction
260 261 265 267 268 268 266 265 266 269 270 271 273 275 277 277 277 277 278 281 281 280 280 280 280 281 282 282 282 281 282 283 284 285 286 287 287 288 289 289 290 290 290 289
263 263 262 264 265 266 267 267 267 267 268 269 271 275 277 278 277 277 278 280 280 280 280 279 279 280 281 282 282 282 281 282 284 284 284 285 286 286 287 288 290 291 291 290
266 267 265 265 267 267 268 267 267 269 270 269 269 272 275 276 277 277 278 278 279 280 280 280 281 281 281 282 282 282 282 282 282 282 282 282 284 285 287 288 290 291 290 290
268 267 266 270 271 270 269 268 269 270 270 269 270 271 272 273 274 276 278 278 277 278 278 280 281 282 282 281 282 282 283 282 281 280 280 281 283 284 286 288 289 290 290 291
266 268 270 271 272 271 268 267 268 270 271 272 271 271 271 272 273 275 276 276 277 277 278 279 280 282 282 282 282 283 283 282 281 280 280 281 282 284 284 285 286 288 288 291
266 268 270 273 274 273 270 269 269 270 271 272 274 274 274 274 275 275 275 275 276 277 278 280 281 281 282 283 282 282 282 282 281 281 280 280 281 283 283 284 285 287 287 289
267 267 269 272 274 273 271 270 270 271 272 273 274 274 274 275 275 275 275 275 277 278 278 279 281 282 283 283 283 282 282 281 281 281 280 279 281 283 284 284 284 286 287 288
267 266 267 269 269 270 271 272 271 270 271 273 274 275 275 276 277 277 277 277 278 279 279 280 281 282 282 283 283 282 282 281 281 281 280 279 280 283 283 283 284 285 286 287
265 265 265 266 268 270 271 272 272 272 271 272 274 276 277 278 277 278 277 278 278 279 280 280 281 281 281 281 282 282 282 282 282 281 280 280 281 282 282 282 284 285 285 286
265 265 264 263 265 268 269 270 271 272 273 273 274 275 276 277 277 277 278 277 278 280 280 280 280 280 281 281 281 281 282 282 282 281 281 282 282 281 282 283 284 285 285 286
265 266 265 265 266 265 267 268 269 270 272 274 275 275 275 276 276 277 279 279 279 279 280 281 281 280 280 281 281 280 280 280 280 281 282 281 281 282 282 282 284 284 285 286
266 266 266 265 266 267 267 267 269 269 270 271 273 274 275 277 278 279 279 278 278 279 280 281 281 280 279 280 281 280 279 279 279 281 281 281 281 282 283 284 284 285 285 286
267 267 267 267 267 268 267 266 268 270 272 273 273 273 275 276 278 278 278 278 279 279 280 280 281 280 280 280 281 279 279 279 279 280 280 280 281 282 282 284 284 286 284 285
266 268 268 268 268 268 268 268 268 269 271 272 273 273 274 275 276 277 279 279 280 281 281 280 280 281 281 280 281 281 279 280 281 281 280 279 279 280 280 282 284 286 285 284
268 270 270 270 268 269 269 269 270 270 271 271 271 273 273 273 274 276 278 280 280 281 281 281 281 280 280 281 282 282 281 281 281 280 279 278 278 280 280 282 283 284 284 285
270 271 271 272 271 270 270 271 270 269 269 269 270 271 272 273 274 275 277 279 279 280 281 281 281 281 281 281 281 282 283 282 280 279 278 277 278 279 280 281 283 283 283 285
272 273 273 272 272 271 271 272 271 269 269 269 269 270 272 273 274 274 275 277 279 280 281 281 281 281 280 280 280 281 281 279 278 278 278 278 279 280 281 282 283 283 284 285
273 273 273 272 272 273 274 274 272 270 269 270 269 269 270 272 274 275 276 277 279 280 281 282 282 281 280 280 279 280 279 277 276 276 278 279 279 280 279 280 280 281 282 283
272 273 274 274 275 276 275 274 273 272 271 270 269 270 270 271 272 275 276 277 279 280 281 282 281 281 280 281 280 278 277 276 275 276 278 277 279 280 279 279 279 280 281 283
274 275 276 275 275 276 274 274 275 274 272 271 271 271 271 272 273 275 276 277 278 279 280 280 281 281 280 281 280 278 278 277 276 277 278 278 280 279 279 279 279 280 281 282
276 277 278 276 275 275 275 275 275 275 275 274 273 271 271 272 273 274 276 276 277 277 278 279 280 280 278 278 279 280 280 280 280 279 277 278 280 280 280 281 281 281 282 284
279 280 279 279 278 276 276 276 276 277 277 277 275 273 273 274 274 275 276 275 275 276 277 277 277 278 277 277 278 278 279 280 280 280 279 279 279 279 280 282 282 282 282 283
280 281 281 280 280 278 277 276 276 277 278 277 276 275 275 275 276 277 276 276 276 276 277 277 277 276 275 275 277 277 279 279 278 279 280 280 279 278 279 280 281 282 282 284
279 281 282 281 280 280 279 278 278 278 278 278 277 275 275 276 276 277 277 276 276 277 278 277 275 274 275 276 276 277 278 278 278 278 279 279 278 278 279 280 282 282 283 285
280 281 282 282 282 281 280 279 279 278 278 279 278 277 275 275 275 276 277 277 278 278 278 277 276 275 275 275 276 276 277 276 276 276 277 277 278 278 279 279 280 281 283 284
280 281 282 283 283 283 281 280 280 280 280 279 280 280 277 276 276 276 277 278 279 279 279 278 277 276 275 274 274 274 275 275 274 273 274 276 277 278 279 280 281 282 283 283
281 281 281 282 283 283 283 281 281 280 280 280 281 280 278 276 276 276 277 278 278 279 278 278 277 275 275 275 274 273 273 273 274 273 273 274 277 279 280 281 282 283 282 282
Height
5775 5776 5776 5776 5777 5777 5777 5778 5778 5779 5779 5778 5778 5777 5776 5775 5775 5775 5775 5775 5775 5775 5775 5775 5774 5774 5773 5773 5772 5772 5771 5770 5769 5768 5767 5765 5764 5763 5761 5760 5758 5756 5754 5753
5768 5770 5770 5770 5771 5771 5771 5771 5772 5772 5772 5772 5771 5771 5770 5769 5769 5769 5769 5769 5768 5768 5768 5768 5768 5767 5767 5766 5765 5764 5764 5763 5762 5761 5759 5758 5757 5756 5754 5753 5751 5749 5747 5746
5762 5763 5763 5763 5765 5765 5765 5765 5765 5765 5766 5765 5765 5764 5764 5764 5763 5762 5762 5762 5762 5761 5761 5761 5760 5760 5760 5759 5758 5757 5756 5755 5754 5753 5752 5751 5750 5749 5747 5746 5744 5742 5740 5738
5755 5756 5756 5760 5758 5758 5758 5758 5758 5758 5758 5758 5758 5758 5758 5757 5757 5756 5756 5755 5755 5755 5754 5754 5753 5753 5752 5751 5750 5749 5748 5747 5746 5745 5744 5743 5742 5741 5740 5738 5737 5735 5733 5731
5748 5748 5749 5752 5752 5751 5750 5751 5751 5751 5751 5751 5751 5751 5751 5750 5750 5749 5749 5748 5748 5747 5747 5747 5746 5745 5744 5743 5742 5741 5740 5739 5738 5737 5736 5735 5734 5733 5732 5731 5729 5727 5726 5724
5741 5741 5742 5745 5745 5743 5744 5744 5745 5744 5744 5744 5743 5744 5744 5743 5743 5742 5742 5741 5741 5740 5740 5739 5738 5737 5736 5735 5734 5733 5732 5731 5730 5729 5728 5727 5726 5725 5724 5723 5721 5720 5719 5717
5734 5734 5735 5737 5736 5736 5737 5737 5737 5736 5736 5736 5736 5736 5736 5736 5736 5735 5735 5734 5733 5733 5732 5731 5730 5729 5728 5727 5725 5724 5723 5722 5721 5721 5720 5719 5718 5717 5716 5715 5713 5711 5711 5709
5726 5727 5730 5729 5729 5729 5729 5729 5729 5729 5729 5729 5728 5728 5728 5728 5728 5728 5727 5726 5726 5725 5724 5723 5722 5721 5720 5718 5717 5716 5715 5714 5713 5712 5711 5711 5710 5709 5708 5707 5705 5703 5702 5701
5720 5721 5721 5721 5721 5721 5721 5721 5721 5721 5721 5721 5721 5721 5721 5720 5720 5719 5719 5718 5717 5717 5716 5715 5714 5713 5711 5710 5709 5708 5707 5706 5705 5704 5703 5702 5702 5701 5700 5698 5696 5695 5694 5693
5711 5712 5713 5713 5713 5713 5713 5713 5713 5713 5713 5713 5713 5713 5713 5712 5712 5711 5711 5710 5709 5709 5708 5707 5705 5704 5703 5702 5701 5700 5699 5698 5697 5696 5695 5694 5693 5692 5691 5689 5688 5687 5686 5685
5703 5704 5704 5705 5705 5705 5705 5705 5705 5705 5705 5705 5704 5704 5704 5703 5703 5703 5703 5702 5701 5700 5699 5698 5697 5696 5695 5694 5693 5692 5691 5690 5689 5688 5687 5686 5685 5684 5682 5681 5679 5679 5678 5676
5694 5695 5695 5696 5696 5696 5696 5697 5697 5697 5697 5696 5696 5696 5695 5695 5695 5694 5694 5693 5693 5692 5691 5690 5689 5687 5686 5685 5684 5683 5683 5682 5681 5680 5679 5678 5676 5676 5674 5673 5671 5670 5669 5668
5685 5686 5686 5687 5687 5687 5687 5688 5688 5688 5688 5688 5687 5687 5687 5686 5686 5686 5685 5685 5684 5683 5682 5681 5680 5679 5678 5677 5676 5675 5674 5674 5673 5672 5671 5669 5668 5667 5666 5665 5663 5662 5661 5660
5677 5677 5677 5678 5678 5678 5678 5678 5679 5679 5679 5679 5678 5678 5678 5678 5678 5677 5677 5676 5675 5675 5674 5673 5672 5671 5669 5668 5667 5666 5665 5665 5664 5663 5662 5661 5660 5659 5658 5657 5656 5654 5653 5652
5669 5669 5669 5669 5669 5669 5669 5669 5669 5669 5669 5669 5669 5669 5669 5669 5669 5668 5668 5667 5667 5666 5665 5664 5663 5662 5661 5660 5658 5657 5656 5656 5655 5654 5653 5652 5651 5651 5650 5649 5648 5646 5645 5644
5660 5660 5660 5660 5660 5660 5660 5660 5660 5660 5660 5660 5660 5660 5660 5660 5660 5660 5659 5659 5658 5657 5656 5655 5654 5653 5651 5650 5649 5648 5647 5647 5646 5645 5644 5644 5643 5643 5642 5641 5640 5638 5637 5636
5652 5652 5652 5652 5651 5651 5651 5650 5650 5650 5650 5651 5651 5651 5651 5651 5651 5651 5650 5650 5649 5648 5647 5646 5645 5644 5642 5641 5640 5639 5639 5638 5637 5637 5636 5635 5635 5634 5633 5633 5632 5630 5629 5628
5644 5643 5643 5643 5643 5642 5642 5642 5641 5641 5641 5641 5641 5642 5642 5642 5642 5642 5641 5641 5640 5639 5638 5637 5636 5635 5633 5632 5632 5631 5630 5629 5629 5629 5628 5627 5627 5626 5625 5624 5624 5622 5621 5620
5636 5635 5635 5635 5634 5634 5633 5633 5632 5632 5632 5632 5632 5632 5633 5633 5633 5632 5632 5632 5631 5630 5629 5628 5627 5626 5625 5624 5623 5622 5622 5621 5621 5621 5620 5619 5618 5617 5617 5616 5615 5614 5614 5613
5628 5627 5627 5626 5626 5625 5625 5624 5624 5623 5623 5623 5623 5623 5623 5623 5623 5623 5623 5622 5622 5621 5620 5619 5618 5617 5616 5615 5615 5614 5613 5613 5612 5612 5611 5611 5610 5610 5609 5608 5607 5607 5606 5605
5620 5619 5618 5618 5617 5617 5616 5616 5615 5615 5614 5614 5614 5613 5613 5614 5614 5613 5613 5613 5612 5611 5611 5610 5610 5609 5608 5607 5607 5606 5605 5605 5604 5603 5603 5602 5602 5601 5601 5600 5599 5599 5598 5597
5611 5611 5610 5609 5609 5608 5608 5607 5606 5606 5605 5605 5604 5604 5604 5604 5604 5604 5604 5604 5603 5602 5602 5601 5601 5600 5599 5599 5598 5598 5597 5597 5596 5595 5595 5594 5594 5593 5593 5592 5592 5591 5590 5589
5604 5603 5602 5601 5600 5599 5599 5598 5598 5597 5596 5596 5595 5595 5595 5595 5595 5595 5595 5594 5594 5593 5593 5592 5592 5591 5591 5590 5590 5590 5589 5588 5588 5587 5587 5586 5586 5585 5584 5584 5583 5583 5582 5581
5596 5595 5594 5593 5592 5591 5590 5589 5589 5588 5587 5587 5586 5586 5586 5586 5586 5586 5585 5585 5584 5584 5583 5583 5582 5582 5582 5581 5581 5581 5580 5580 5579 5579 5578 5578 5577 5577 5576 5575 5575 5574 5573 5572
5588 5587 5586 5585 5583 5582 5581 5580 5580 5579 5578 5578 5577 5576 5576 5576 5576 5576 5576 5575 5575 5575 5574 5573 5573 5573 5572 5572 5572 5572 5571 5571 5571 5570 5570 5569 5569 5568 5567 5567 5566 5565 5564 5563
5579 5578 5577 5576 5575 5573 5572 5571 5571 5570 5569 5569 5568 5567 5567 5567 5566 5566 5566 5566 5566 5565 5565 5564 5564 5563 5563 5563 5563 5562 5562 5562 5562 5561 5561 5560 5560 5559 5559 5558 5557 5557 5556 5554
5571 5570 5569 5567 5566 5565 5563 5562 5562 5561 5560 5560 5559 5559 5558 5558 5558 5557 5557 5557 5556 5556 5555 5555 5555 5554 5554 5554 5554 5553 5553 5553 5552 5552 5551 5551 5550 5550 5549 5549 5548 5547 5546 5545